Location: Pinon Hills
(34.4429°N, 117.6403°W)
Time: 08:54:47
(UTC-08:00)

Daily predictions for brighter satellites

Satellite Brightness Start Highest point End
(mag) Time Altitude Azimuth Time Altitude Azimuth Time Altitude Azimuth
ATLAS 2A CENTAUR R/B 4.5 17:53:55 10° WSW 18:00:29 56° S 18:28:10 10° ESE
Gbstr 26 Del rocket 3.6 18:02:37 10° WSW 18:06:28 47° NW 18:10:06 10° NE
Cosmos 1812 3.5 18:03:28 10° NNW 18:07:16 59° W 18:11:03 10° S
DELTA 2 R/B (1) 3.6 18:02:28 10° WNW 18:08:07 81° NNE 18:13:44 10° ESE
COSMOS 2428 3.8 18:06:10 10° N 18:10:37 23° ENE 18:15:04 10° ESE
COSMO-SKYMED 1 3.2 18:07:00 10° N 18:11:17 61° WNW 18:15:33 10° SSW
Resurs 01 Rocket 3.1 18:10:05 10° ESE 18:12:57 17° ENE 18:15:49 10° NNE
Cosmos 1238 Rocket 2.8 18:10:38 10° NNE 18:13:19 32° E 18:16:09 10° SSE
Atlas Centaur 2 4.4 18:11:47 10° S 18:16:01 16° SSE 18:19:52 10° ESE
Meteor 2-4 Rocket 4.3 18:11:16 10° NNE 18:16:05 31° ENE 18:20:48 10° SE
Cosmos 1536 3.4 18:13:34 10° SSE 18:17:12 35° E 18:20:50 10° NNE
NOSS 8 (H) 4.4 18:14:28 10° SSW 18:17:54 90° SSW 18:21:21 10° NNE
Meteor 1-13 Rocket 4.3 18:12:36 10° N 18:18:06 56° E 18:23:40 10° SSE
BREEZE-M DEB (TANK) 3.9 18:17:02 10° N 18:19:10 18° NE 18:22:41 10° E
Cosmos 1850 Rocket 4.1 18:14:50 10° S 18:20:01 59° ESE 18:25:16 10° NNE
Cosmos 2219 Rocket 3.7 18:19:14 10° NNE 18:22:35 16° NE 18:25:25 11° E
Cosmos 2360 Rocket 2.2 18:16:58 10° NNW 18:22:36 65° ENE 18:28:13 10° SSE
Okean 1 4.0 18:20:14 10° NNW 18:24:15 61° W 18:28:15 10° S
Cosmos 2219 3.3 18:19:17 10° S 18:24:53 58° ESE 18:30:31 10° NNE
Cosmos 2227 Rocket 3.6 18:25:12 10° SE 18:28:32 16° E 18:31:29 11° ENE
OTV 4 1.3 18:29:09 10° SW 18:31:54 34° SSE 18:33:37 18° E
Cosmos 1602 4.3 18:31:55 10° SSW 18:35:44 62° W 18:39:37 10° N
Okean 1 Rocket 3.0 18:31:57 10° S 18:36:25 82° E 18:40:54 10° N
BREEZE-M DEB (TANK) 2.9 18:31:27 10° NW 18:38:24 77° NE 18:40:36 16° ESE
Cosmos 2181 Rocket 4.0 18:34:10 10° N 18:40:28 85° E 18:46:51 10° S
Cosmos 1340 3.5 18:40:08 10° NNW 18:43:51 53° W 18:47:30 10° S
Cosmos 2074 Rocket 4.0 18:41:03 10° S 18:47:09 60° E 18:53:19 10° NNE
ALOS 2.2 18:45:25 10° SSE 18:50:00 63° ENE 18:54:38 10° N
Cosmos 1025 Rocket 3.3 18:46:27 10° N 18:50:40 45° E 18:54:52 10° SSE
Meteor 1-11 Rocket 4.3 18:46:02 10° SSW 18:51:46 65° W 18:57:39 10° N
Cosmos 2184 Rocket 4.0 18:46:18 10° S 18:52:31 65° E 18:58:43 10° NNE
FREGAT/IRIS 3.5 18:53:11 10° S 18:56:11 52° W 18:59:13 10° NNW
Abrixas rocket 3.9 18:53:14 10° W 18:56:15 30° NNW 18:58:29 15° NNE
Tiangong 2 3.8 18:58:25 10° WSW 19:00:16 15° SW 19:02:08 10° S
SL-08 ROCKET BODY 4.5 18:57:12 10° S 19:03:22 87° W 19:09:36 10° N
Cosmos 1544 Rocket 4.0 19:00:45 10° SSE 19:04:45 37° E 19:08:44 10° NNE
Cosmos 2333 Rocket 3.0 19:00:09 10° N 19:05:07 29° ENE 19:05:58 28° ENE
Meteor 2-13 Rocket 4.5 19:00:34 10° SSE 19:06:25 54° E 19:12:20 10° NNE
Genesis I 3.1 19:04:00 10° NNW 19:07:57 85° WSW 19:10:17 23° SSE
ATLAS CENTAUR R/B 1.3 19:03:52 10° SW 19:09:15 76° SE 19:09:45 57° ENE
GPS 2-04 Rocket1 2.8 19:05:22 10° W 19:09:39 79° N 19:11:01 43° ENE
FENGYUN 3A 3.7 19:04:48 10° SSE 19:10:13 86° W 19:15:40 10° NNW
CZ-3C R/B 3.1 19:07:25 10° WSW 19:11:57 16° SSW 19:14:07 11° SSE
Okean 1-7 Rocket 3.9 19:09:41 10° NNW 19:14:09 67° W 19:18:34 10° S
Nadezhda 3 Rocket 4.4 19:09:12 10° NNE 19:14:53 38° ENE 19:16:26 33° ESE
BREEZE-M DEB (TANK) 3.9 19:13:19 10° WSW 19:16:54 28° NW 19:17:49 23° N
Cosmos 2341 Rocket 4.4 19:13:29 10° SSE 19:19:17 39° E 19:25:08 10° NNE
GEOS 3 Rocket 3.9 19:14:29 10° NNE 19:19:43 71° NW 19:24:59 10° SW
OAO 3 Rocket 3.8 19:16:16 10° SW 19:20:53 40° SSE 19:21:24 39° SE
Cosmos 2154 Rocket 4.0 19:15:40 10° SSE 19:21:51 57° E 19:28:02 10° NNE
Hubble Space Telescope 1.8 19:19:51 10° WSW 19:23:33 32° S 19:23:37 32° S
NOSS 0 Rocket 4.2 19:19:28 10° N 19:25:20 45° ENE 19:26:10 42° E
Cosmos 2285 Rocket 3.9 19:20:47 10° NNW 19:27:14 77° ENE 19:32:09 18° SSE
Cosmos 2082 3.8 19:24:09 10° S 19:29:40 53° ESE 19:30:32 48° ENE
CZ-2D R/B 3.3 19:34:42 76° W 19:34:42 76° W 19:38:25 10° NNW
Cosmos 405 Rocket 3.6 19:31:26 10° N 19:34:09 40° N 19:34:09 40° N
H-2A R/B 3.5 19:33:11 19° S 19:35:40 50° W 19:39:19 10° NNW
Helios 1A 3.3 19:37:02 54° N 19:37:02 54° N 19:40:18 10° N
Okean 2 3.7 19:36:42 10° NNW 19:40:50 64° W 19:41:57 44° SSW
Meteor 1-12 Rocket 4.2 19:37:33 10° S 19:43:32 73° E 19:49:27 10° NNE
Helios 1B rocket 2.8 19:39:42 10° N 19:43:49 64° WNW 19:47:54 10° SSW
BREEZE-M DEB (TANK) 4.3 19:41:14 10° NW 19:45:20 60° NE 19:47:14 47° E
Spot 2 Rocket 4.4 19:40:33 10° S 19:45:24 48° W 19:50:19 10° NNW
Cosmos 468 Rocket 3.9 19:40:49 10° NNW 19:45:48 73° NE 19:45:48 73° NE
Resurs 01 Rocket 3.1 19:45:05 10° SSW 19:49:07 35° W 19:53:10 10° NNW
Cosmos 2297 Rocket 2.5 19:46:04 10° SSW 19:50:18 51° S 19:50:18 51° S
Cosmos 2237 Rocket 2.8 19:47:54 10° NNW 19:52:00 42° NNE 19:52:00 42° NNE
Cosmos 962 Rocket 4.3 19:47:30 10° S 19:53:41 78° E 19:59:50 10° N
COSMOS 2428 3.8 19:49:41 10° NW 19:55:02 43° WSW 19:59:52 12° S
Envisat 4.4 20:04:30 28° N 20:04:30 28° N 20:06:53 10° N
USA 229 DEB 3.9 19:55:22 10° NW 20:02:30 72° WSW 20:04:57 44° S
USA 229 3.9 19:55:27 10° NW 20:02:36 73° WSW 20:04:59 45° S
Atlas Centaur 2 3.5 19:58:43 10° SW 20:03:45 32° S 20:03:45 32° S
Cosmos 2219 Rocket 2.4 20:01:26 10° NNW 20:06:59 65° WSW 20:07:13 64° WSW
Cosmos 2227 Rocket 2.7 20:06:29 10° SW 20:12:01 56° WNW 20:13:32 43° NNW
NOSS 3-1 (A) 4.4 20:07:51 10° NNW 20:14:17 48° NNE 20:14:17 48° NNE
SL-16 R/B 4.3 20:23:14 10° N 20:24:27 16° N 20:24:27 16° N
NOSS 3-1 (C) 4.1 20:25:59 10° NNW 20:32:47 71° N 20:32:47 71° N
Cosmos 2333 Rocket 3.8 20:44:12 10° NW 20:48:02 31° WNW 20:48:02 31° WNW
